KF6ILA Weather Reports


Display with metric or nautical units.
time (UTC)temp
F
wind
direction
speed
MPH
gust
MPH
rain 1hr
in
rain 24hr
in
rain mn
in
humidity
%
barometer
mb
20260509134426 60 262 10.0 15.0 0.00 0.00 0.00 51 1013.5
20260509133929 60 258 9.0 15.0 0.00 0.00 0.00 52 1013.4
20260509125953 60 258 12.0 20.0 0.00 0.00 0.00 52 1013.4
20260509125456 60 256 13.0 17.0 0.00 0.00 0.00 50 1013.3
20260509124959 60 246 11.0 18.0 0.00 0.00 0.00 48 1013.2
20260509124502 60 246 13.0 20.0 0.00 0.00 0.00 45 1013.3
20260509124005 60 250 14.0 20.0 0.00 0.00 0.00 42 1013.2
20260509123508 60 242 13.0 19.0 0.00 0.00 0.00 41 1013.1
20260509121520 61 242 14.0 20.0 0.00 0.00 0.00 35 1013.2
20260509115532 62 237 13.0 20.0 0.00 0.00 0.00 26 1013.1
20260509115035 63 242 15.0 21.0 0.00 0.00 0.00 24 1013.1
20260509114538 63 245 14.0 21.0 0.00 0.00 0.00 23 1013.1
20260509113047 62 243 13.0 18.0 0.00 0.00 0.00 24 1013.1
20260509112550 62 246 12.0 18.0 0.00 0.00 0.00 23 1013.2
20260509112053 62 243 12.0 18.0 0.00 0.00 0.00 23 1013.2
20260509110602 62 246 13.0 21.0 0.00 0.00 0.00 26 1013.2
20260509105608 61 245 14.0 19.0 0.00 0.00 0.00 29 1013.1
20260509105111 61 243 13.0 21.0 0.00 0.00 0.00 31 1013.2
20260509104117 61 243 13.0 20.0 0.00 0.00 0.00 34 1013.1
20260509103620 61 241 14.0 21.0 0.00 0.00 0.00 34 1013.2
20260509103123 61 240 15.0 21.0 0.00 0.00 0.00 36 1013.2
20260509102626 61 243 15.0 21.0 0.00 0.00 0.00 38 1013.2
20260509101632 60 241 15.0 21.0 0.00 0.00 0.00 42 1013.3
20260509095644 61 246 15.0 21.0 0.00 0.00 0.00 43 1013.3
20260509090217 60 243 16.0 22.0 0.00 0.00 0.00 49 1013.6
20260509085720 60 243 15.0 22.0 0.00 0.00 0.00 50 1013.6
20260509084229 60 251 16.0 23.0 0.00 0.00 0.00 49 1013.8
20260509081247 60 253 16.0 22.0 0.00 0.00 0.00 48 1013.9
20260509080253 60 252 16.0 22.0 0.00 0.00 0.00 46 1013.8
20260509075756 61 245 16.0 22.0 0.00 0.00 0.00 43 1013.9
20260509074802 62 242 20.0 24.0 0.00 0.00 0.00 39 1014.0
20260509074305 61 242 19.0 24.0 0.00 0.00 0.00 38 1014.1
20260509073808 62 237 15.0 24.0 0.00 0.00 0.00 41 1014.1
20260509072814 62 240 18.0 24.0 0.00 0.00 0.00 39 1014.1
20260509071820 63 238 16.0 22.0 0.00 0.00 0.00 32 1014.2
20260509071325 63 242 16.0 23.0 0.00 0.00 0.00 30 1014.2
20260509065336 63 241 16.0 22.0 0.00 0.00 0.00 31 1014.2
20260509064838 63 242 15.0 22.0 0.00 0.00 0.00 29 1014.3
20260509062353 63 244 16.0 22.0 0.00 0.00 0.00 31 1014.4
20260509061359 63 251 15.0 21.0 0.00 0.00 0.00 31 1014.5
20260509055908 64 257 14.0 20.0 0.00 0.00 0.00 28 1014.6
20260509054417 64 254 14.0 21.0 0.00 0.00 0.00 27 1014.7
20260509053423 64 254 15.0 20.0 0.00 0.00 0.00 27 1014.8
20260509052430 64 254 14.0 20.0 0.00 0.00 0.00 26 1014.9
20260509051435 65 255 15.0 22.0 0.00 0.00 0.00 26 1014.9
20260509045447 64 252 14.0 21.0 0.00 0.00 0.00 26 1014.9
20260509044453 64 257 14.0 22.0 0.00 0.00 0.00 27 1014.9
20260509043459 64 258 16.0 21.0 0.00 0.00 0.00 29 1014.9
20260509043002 64 261 14.0 21.0 0.00 0.00 0.00 30 1014.9
20260509042008 64 258 14.0 20.0 0.00 0.00 0.00 31 1014.7
20260509041014 64 258 13.0 21.0 0.00 0.00 0.00 33 1014.6
20260509040517 63 261 13.0 21.0 0.00 0.00 0.00 34 1014.5
20260509040020 63 261 13.0 20.0 0.00 0.00 0.00 37 1014.5
20260509035523 63 261 13.0 20.0 0.00 0.00 0.00 39 1014.5
20260509033038 63 261 13.0 21.0 0.00 0.00 0.00 45 1014.1
20260509032541 63 259 14.0 21.0 0.00 0.00 0.00 46 1014.2
20260509032044 63 262 13.0 20.0 0.00 0.00 0.00 47 1014.2
20260509031547 63 260 15.0 20.0 0.00 0.00 0.00 48 1014.0
20260509025102 64 263 13.0 21.0 0.00 0.00 0.00 49 1014.7
20260509024108 64 261 14.0 20.0 0.00 0.00 0.00 49 1014.7
20260509023611 64 262 14.0 20.0 0.00 0.00 0.00 50 1014.7
20260509022617 65 260 14.0 20.0 0.00 0.00 0.00 50 1014.6
20260509020629 67 260 12.0 19.0 0.00 0.00 0.00 51 1014.7
20260509014144 69 269 15.0 23.0 0.00 0.00 0.00 48 1014.7
20260509013150 69 263 16.0 23.0 0.00 0.00 0.00 46 1014.7
20260509012156 70 262 13.0 21.0 0.00 0.00 0.00 43 1014.8
20260509011659 71 269 15.0 21.0 0.00 0.00 0.00 41 1014.7
20260509011202 71 269 11.0 22.0 0.00 0.00 0.00 42 1014.7
20260509010705 71 268 15.0 23.0 0.00 0.00 0.00 40 1014.7
20260509005711 71 280 15.0 28.0 0.00 0.00 0.00 38 1014.7
20260509004220 72 268 19.0 27.0 0.00 0.00 0.00 35 1013.9
20260509003723 72 283 17.0 27.0 0.00 0.00 0.00 33 1014.1
20260509000741 74 283 19.0 26.0 0.00 0.00 0.00 24 1015.1
20260509000244 74 290 13.0 26.0 0.00 0.00 0.00 26 1015.2
20260508235747 74 281 16.0 28.0 0.00 0.00 0.00 27 1015.2
20260508234256 75 273 14.0 24.0 0.00 0.00 0.00 29 1014.3
20260508231811 75 260 13.0 24.0 0.00 0.00 0.00 32 1015.4
20260508230320 75 277 14.0 24.0 0.00 0.00 0.00 35 1015.3
20260508225823 75 269 12.0 26.0 0.00 0.00 0.00 36 1015.4
20260508223338 75 253 18.0 27.0 0.00 0.00 0.00 37 1015.7
20260508215859 76 269 14.0 24.0 0.00 0.00 0.00 37 1015.9
20260508212917 76 273 16.0 24.0 0.00 0.00 0.00 37 1016.2
20260508212420 76 276 13.0 0.0 0.00 0.00 0.00 36 1016.2
20260508210432 75 285 16.0 25.0 0.00 0.00 0.00 39 1016.4
20260508202953 75 291 17.0 26.0 0.00 0.00 0.00 37 1016.2
20260508202456 75 284 13.0 25.0 0.00 0.00 0.00 40 1016.4
20260508201005 75 287 13.0 24.0 0.00 0.00 0.00 40 1016.5
20260508194520 74 283 12.0 26.0 0.00 0.00 0.00 43 1016.5
20260508194023 74 288 12.0 26.0 0.00 0.00 0.00 42 1016.5
20260508191538 75 281 15.0 22.0 0.00 0.00 0.00 39 1016.8
20260508185550 74 283 16.0 23.0 0.00 0.00 0.00 39 1016.7
20260508183602 75 273 11.0 25.0 0.00 0.00 0.00 40 1016.8
20260508183105 75 281 11.0 20.0 0.00 0.00 0.00 41 1016.8
20260508182111 74 292 9.0 21.0 0.00 0.00 0.00 40 1016.8
20260508181614 74 277 12.0 22.0 0.00 0.00 0.00 39 1016.8
20260508172148 73 280 14.0 20.0 0.00 0.00 0.00 39 1016.7
20260508170656 73 275 13.0 21.0 0.00 0.00 0.00 37 1016.6
20260508165702 72 282 9.0 23.0 0.00 0.00 0.00 38 1016.7
20260508165205 72 281 10.0 18.0 0.00 0.00 0.00 40 1016.6
20260508163714 72 262 10.0 17.0 0.00 0.00 0.00 42 1016.6
20260508163217 72 257 10.0 16.0 0.00 0.00 0.00 42 1016.7
20260508160732 71 266 9.0 15.0 0.00 0.00 0.00 40 1016.6
20260508160235 70 281 10.0 13.0 0.00 0.00 0.00 40 1016.7
20260508155241 70 274 9.0 15.0 0.00 0.00 0.00 41 1016.6
20260508154744 70 266 8.0 14.0 0.00 0.00 0.00 42 1016.7
20260508150311 68 265 8.0 16.0 0.00 0.00 0.00 37 1016.5
20260508145814 68 269 8.0 16.0 0.00 0.00 0.00 37 1016.4
20260508142832 67 288 6.0 15.0 0.00 0.00 0.00 40 1016.3
20260508135850 64 272 8.0 15.0 0.00 0.00 0.00 45 1015.3
20260508135353 64 284 9.0 13.0 0.00 0.00 0.00 45 1015.4